Year,Month,Day,Hour,Minute,Value (Times are PST for temperature in C)
2009,07,29,00,00,24.40
2009,07,29,00,01,24.50
2009,07,29,00,02,24.60
2009,07,29,00,03,24.60
2009,07,29,00,04,24.70
2009,07,29,00,05,24.70
2009,07,29,00,06,24.80
2009,07,29,00,07,24.80
2009,07,29,00,08,24.80
2009,07,29,00,09,24.80
2009,07,29,00,10,24.80
2009,07,29,00,11,24.80
2009,07,29,00,12,24.70
2009,07,29,00,13,24.70
2009,07,29,00,14,24.70
2009,07,29,00,15,24.70
2009,07,29,00,16,24.80
2009,07,29,00,17,24.80
2009,07,29,00,18,24.80
2009,07,29,00,19,24.70
2009,07,29,00,20,24.70
2009,07,29,00,21,24.70
2009,07,29,00,22,24.70
2009,07,29,00,23,24.70
2009,07,29,00,24,24.70
2009,07,29,00,25,24.70
2009,07,29,00,26,24.70
2009,07,29,00,27,24.60
2009,07,29,00,28,24.60
2009,07,29,00,29,24.60
2009,07,29,00,30,24.60
2009,07,29,00,31,24.60
2009,07,29,00,32,24.60
2009,07,29,00,33,24.60
2009,07,29,00,34,24.70
2009,07,29,00,35,24.70
2009,07,29,00,36,24.70
2009,07,29,00,37,24.80
2009,07,29,00,38,24.80
2009,07,29,00,39,24.80
2009,07,29,00,40,24.90
2009,07,29,00,41,24.90
2009,07,29,00,42,24.90
2009,07,29,00,43,24.90
2009,07,29,00,44,24.90
2009,07,29,00,45,24.90
2009,07,29,00,46,24.90
2009,07,29,00,47,24.90
2009,07,29,00,48,24.90
2009,07,29,00,49,24.80
2009,07,29,00,50,24.80
2009,07,29,00,51,24.90
2009,07,29,00,52,24.90
2009,07,29,00,53,25.00
2009,07,29,00,54,24.90
2009,07,29,00,55,24.90
2009,07,29,00,56,24.90
2009,07,29,00,57,24.80
2009,07,29,00,58,24.80
2009,07,29,00,59,24.70
2009,07,29,01,00,24.60
2009,07,29,01,01,24.50
2009,07,29,01,02,24.40
2009,07,29,01,03,24.40
2009,07,29,01,04,24.30
2009,07,29,01,05,24.20
2009,07,29,01,06,24.10
2009,07,29,01,07,24.10
2009,07,29,01,08,24.10
2009,07,29,01,09,24.20
2009,07,29,01,10,24.20
2009,07,29,01,11,24.30
2009,07,29,01,12,24.30
2009,07,29,01,13,24.30
2009,07,29,01,14,24.40
2009,07,29,01,15,24.40
2009,07,29,01,16,24.40
2009,07,29,01,17,24.50
2009,07,29,01,18,24.50
2009,07,29,01,19,24.60
2009,07,29,01,20,24.70
2009,07,29,01,21,24.80
2009,07,29,01,22,24.80
2009,07,29,01,23,24.80
2009,07,29,01,24,24.80
2009,07,29,01,25,24.80
2009,07,29,01,26,24.70
2009,07,29,01,27,24.60
2009,07,29,01,28,24.40
2009,07,29,01,29,24.30
2009,07,29,01,30,24.20
2009,07,29,01,31,24.10
2009,07,29,01,32,23.90
2009,07,29,01,33,23.80
2009,07,29,01,34,23.80
2009,07,29,01,35,23.80
2009,07,29,01,36,23.80
2009,07,29,01,37,23.80
2009,07,29,01,38,23.80
2009,07,29,01,39,23.80
2009,07,29,01,40,23.90
2009,07,29,01,41,23.90
2009,07,29,01,42,24.00
2009,07,29,01,43,24.10
2009,07,29,01,44,24.10
2009,07,29,01,45,24.20
2009,07,29,01,46,24.20
2009,07,29,01,47,24.20
2009,07,29,01,48,24.20
2009,07,29,01,49,24.10
2009,07,29,01,50,24.10
2009,07,29,01,51,24.10
2009,07,29,01,52,24.10
2009,07,29,01,53,24.10
2009,07,29,01,54,24.10
2009,07,29,01,55,24.10
2009,07,29,01,56,24.00
2009,07,29,01,57,24.00
2009,07,29,01,58,24.00
2009,07,29,01,59,23.90
2009,07,29,02,00,23.90
2009,07,29,02,01,23.80
2009,07,29,02,02,23.80
2009,07,29,02,03,23.80
2009,07,29,02,04,23.70
2009,07,29,02,05,23.70
2009,07,29,02,06,23.70
2009,07,29,02,07,23.60
2009,07,29,02,08,23.60
2009,07,29,02,09,23.60
2009,07,29,02,10,23.60
2009,07,29,02,11,23.60
2009,07,29,02,12,23.50
2009,07,29,02,13,23.50
2009,07,29,02,14,23.50
2009,07,29,02,15,23.50
2009,07,29,02,16,23.50
2009,07,29,02,17,23.50
2009,07,29,02,18,23.50
2009,07,29,02,19,23.50
2009,07,29,02,20,23.50
2009,07,29,02,21,23.50
2009,07,29,02,22,23.50
2009,07,29,02,23,23.50
2009,07,29,02,24,23.50
2009,07,29,02,25,23.40
2009,07,29,02,26,23.40
2009,07,29,02,27,23.40
2009,07,29,02,28,23.30
2009,07,29,02,29,23.30
2009,07,29,02,30,23.30
2009,07,29,02,31,23.20
2009,07,29,02,32,23.20
2009,07,29,02,33,23.10
2009,07,29,02,34,23.10
2009,07,29,02,35,23.10
2009,07,29,02,36,23.00
2009,07,29,02,37,23.00
2009,07,29,02,38,23.00
2009,07,29,02,39,23.00
2009,07,29,02,40,23.00
2009,07,29,02,41,23.00
2009,07,29,02,42,23.00
2009,07,29,02,43,23.00
2009,07,29,02,44,22.90
2009,07,29,02,45,22.90
2009,07,29,02,46,22.90
2009,07,29,02,47,22.90
2009,07,29,02,48,23.00
2009,07,29,02,49,23.10
2009,07,29,02,50,23.10
2009,07,29,02,51,23.20
2009,07,29,02,52,23.20
2009,07,29,02,53,23.30
2009,07,29,02,54,23.30
2009,07,29,02,55,23.30
2009,07,29,02,56,23.30
2009,07,29,02,57,23.40
2009,07,29,02,58,23.50
2009,07,29,02,59,23.50
2009,07,29,03,00,23.50
2009,07,29,03,01,23.50
2009,07,29,03,02,23.40
2009,07,29,03,03,23.40
2009,07,29,03,04,23.40
2009,07,29,03,05,23.40
2009,07,29,03,06,23.30
2009,07,29,03,07,23.30
2009,07,29,03,08,23.30
2009,07,29,03,09,23.30
2009,07,29,03,10,23.30
2009,07,29,03,11,23.20
2009,07,29,03,12,23.20
2009,07,29,03,13,23.20
2009,07,29,03,14,23.10
2009,07,29,03,15,23.20
2009,07,29,03,16,23.20
2009,07,29,03,17,23.20
2009,07,29,03,18,23.30
2009,07,29,03,19,23.30
2009,07,29,03,20,23.40
2009,07,29,03,21,23.40
2009,07,29,03,22,23.40
2009,07,29,03,23,23.30
2009,07,29,03,24,23.30
2009,07,29,03,25,23.30
2009,07,29,03,26,23.20
2009,07,29,03,27,23.20
2009,07,29,03,28,23.10
2009,07,29,03,29,23.10
2009,07,29,03,30,23.00
2009,07,29,03,31,22.90
2009,07,29,03,32,22.80
2009,07,29,03,33,22.80
2009,07,29,03,34,22.70
2009,07,29,03,35,22.70
2009,07,29,03,36,22.70
2009,07,29,03,37,22.60
2009,07,29,03,38,22.60
2009,07,29,03,39,22.60
2009,07,29,03,40,22.60
2009,07,29,03,41,22.60
2009,07,29,03,42,22.50
2009,07,29,03,43,22.50
2009,07,29,03,44,22.50
2009,07,29,03,45,22.50
2009,07,29,03,46,22.50
2009,07,29,03,47,22.50
2009,07,29,03,48,22.50
2009,07,29,03,49,22.40
2009,07,29,03,50,22.40
2009,07,29,03,51,22.40
2009,07,29,03,52,22.30
2009,07,29,03,53,22.30
2009,07,29,03,54,22.20
2009,07,29,03,55,22.20
2009,07,29,03,56,22.10
2009,07,29,03,57,22.10
2009,07,29,03,58,22.10
2009,07,29,03,59,22.00
2009,07,29,04,00,22.00
2009,07,29,04,01,21.90
2009,07,29,04,02,21.90
2009,07,29,04,03,21.90
2009,07,29,04,04,21.90
2009,07,29,04,05,21.90
2009,07,29,04,06,21.90
2009,07,29,04,07,21.90
2009,07,29,04,08,21.90
2009,07,29,04,09,21.90
2009,07,29,04,10,21.90
2009,07,29,04,11,21.90
2009,07,29,04,12,21.90
2009,07,29,04,13,21.90
2009,07,29,04,14,21.90
2009,07,29,04,15,21.80
2009,07,29,04,16,21.90
2009,07,29,04,17,21.90
2009,07,29,04,18,21.90
2009,07,29,04,19,21.80
2009,07,29,04,20,21.80
2009,07,29,04,21,21.80
2009,07,29,04,22,21.80
2009,07,29,04,23,21.80
2009,07,29,04,24,21.80
2009,07,29,04,25,21.80
2009,07,29,04,26,21.80
2009,07,29,04,27,21.80
2009,07,29,04,28,21.80
2009,07,29,04,29,21.80
2009,07,29,04,30,21.80
2009,07,29,04,31,21.80
2009,07,29,04,32,21.70
2009,07,29,04,33,21.70
2009,07,29,04,34,21.70
2009,07,29,04,35,21.60
2009,07,29,04,36,21.60
2009,07,29,04,37,21.60
2009,07,29,04,38,21.70
2009,07,29,04,39,21.60
2009,07,29,04,40,21.50
2009,07,29,04,41,21.40
2009,07,29,04,42,21.40
2009,07,29,04,43,21.40
2009,07,29,04,44,21.40
2009,07,29,04,45,21.50
2009,07,29,04,46,21.50
2009,07,29,04,47,21.50
2009,07,29,04,48,21.60
2009,07,29,04,49,21.60
2009,07,29,04,50,21.50
2009,07,29,04,51,21.60
2009,07,29,04,52,21.50
2009,07,29,04,53,21.50
2009,07,29,04,54,21.50
2009,07,29,04,55,21.50
2009,07,29,04,56,21.50
2009,07,29,04,57,21.50
2009,07,29,04,58,21.50
2009,07,29,04,59,21.50
2009,07,29,05,00,21.40
2009,07,29,05,01,21.40
2009,07,29,05,02,21.30
2009,07,29,05,03,21.30
2009,07,29,05,04,21.30
2009,07,29,05,05,21.20
2009,07,29,05,06,21.20
2009,07,29,05,07,21.20
2009,07,29,05,08,21.20
2009,07,29,05,09,21.20
2009,07,29,05,10,21.20
2009,07,29,05,11,21.20
2009,07,29,05,12,21.20
2009,07,29,05,13,21.20
2009,07,29,05,14,21.20
2009,07,29,05,15,21.20
2009,07,29,05,16,21.20
2009,07,29,05,17,21.20
2009,07,29,05,18,21.10
2009,07,29,05,19,21.10
2009,07,29,05,20,21.10
2009,07,29,05,21,21.10
2009,07,29,05,22,21.20
2009,07,29,05,23,21.20
2009,07,29,05,24,21.20
2009,07,29,05,25,21.20
2009,07,29,05,26,21.20
2009,07,29,05,27,21.20
2009,07,29,05,28,21.20
2009,07,29,05,29,21.20
2009,07,29,05,30,21.20
2009,07,29,05,31,21.10
2009,07,29,05,32,21.10
2009,07,29,05,33,21.20
2009,07,29,05,34,21.10
2009,07,29,05,35,21.10
2009,07,29,05,36,21.10
2009,07,29,05,37,21.10
2009,07,29,05,38,21.10
2009,07,29,05,39,21.00
2009,07,29,05,40,21.00
2009,07,29,05,41,21.00
2009,07,29,05,42,21.00
2009,07,29,05,43,21.00
2009,07,29,05,44,21.00
2009,07,29,05,45,21.00
2009,07,29,05,46,21.10
2009,07,29,05,47,21.10
2009,07,29,05,48,21.00
2009,07,29,05,49,21.10
2009,07,29,05,50,21.10
2009,07,29,05,51,21.10
2009,07,29,05,52,21.10
2009,07,29,05,53,21.10
2009,07,29,05,54,21.10
2009,07,29,05,55,21.10
2009,07,29,05,56,21.00
2009,07,29,05,57,21.00
2009,07,29,05,58,21.00
2009,07,29,05,59,20.90
2009,07,29,06,00,20.90
2009,07,29,06,01,20.90
2009,07,29,06,02,20.90
2009,07,29,06,03,20.90
2009,07,29,06,04,20.90
2009,07,29,06,05,20.90
2009,07,29,06,06,20.90
2009,07,29,06,07,20.90
2009,07,29,06,08,20.90
2009,07,29,06,09,20.90
2009,07,29,06,10,20.90
2009,07,29,06,11,20.90
2009,07,29,06,12,20.90
2009,07,29,06,13,20.90
2009,07,29,06,14,20.90
2009,07,29,06,15,20.90
2009,07,29,06,16,20.90
2009,07,29,06,17,20.90
2009,07,29,06,18,20.90
2009,07,29,06,19,20.90
2009,07,29,06,20,20.90
2009,07,29,06,21,20.90
2009,07,29,06,22,20.90
2009,07,29,06,23,20.90
2009,07,29,06,24,20.90
2009,07,29,06,25,20.90
2009,07,29,06,26,20.90
2009,07,29,06,27,20.90
2009,07,29,06,28,21.00
2009,07,29,06,29,21.00
2009,07,29,06,30,21.00
2009,07,29,06,31,21.00
2009,07,29,06,32,21.00
2009,07,29,06,33,21.00
2009,07,29,06,34,21.10
2009,07,29,06,35,21.10
2009,07,29,06,36,21.10
2009,07,29,06,37,21.20
2009,07,29,06,38,21.20
2009,07,29,06,39,21.20
2009,07,29,06,40,21.20
2009,07,29,06,41,21.30
2009,07,29,06,42,21.30
2009,07,29,06,43,21.30
2009,07,29,06,44,21.30
2009,07,29,06,45,21.40
2009,07,29,06,46,21.40
2009,07,29,06,47,21.40
2009,07,29,06,48,21.40
2009,07,29,06,49,21.60
2009,07,29,06,50,21.60
2009,07,29,06,51,21.60
2009,07,29,06,52,21.60
2009,07,29,06,53,21.70
2009,07,29,06,54,21.80
2009,07,29,06,55,21.80
2009,07,29,06,56,21.80
2009,07,29,06,57,21.80
2009,07,29,06,58,21.90
2009,07,29,06,59,21.80
2009,07,29,07,00,21.90
2009,07,29,07,01,21.90
2009,07,29,07,02,22.00
2009,07,29,07,03,22.10
2009,07,29,07,04,22.10
2009,07,29,07,05,22.20
2009,07,29,07,06,22.20
2009,07,29,07,07,22.30
2009,07,29,07,08,22.30
2009,07,29,07,09,22.30
2009,07,29,07,10,22.40
2009,07,29,07,11,22.40
2009,07,29,07,12,22.40
2009,07,29,07,13,22.50
2009,07,29,07,14,22.50
2009,07,29,07,15,22.60
2009,07,29,07,16,22.60
2009,07,29,07,17,22.60
2009,07,29,07,18,22.70
2009,07,29,07,19,22.70
2009,07,29,07,20,22.80
2009,07,29,07,21,22.80
2009,07,29,07,22,22.80
2009,07,29,07,23,22.90
2009,07,29,07,24,22.90
2009,07,29,07,25,23.00
2009,07,29,07,26,23.00
2009,07,29,07,27,23.10
2009,07,29,07,28,23.20
2009,07,29,07,29,23.20
2009,07,29,07,30,23.30
2009,07,29,07,31,23.30
2009,07,29,07,32,23.40
2009,07,29,07,33,23.40
2009,07,29,07,34,23.40
2009,07,29,07,35,23.50
2009,07,29,07,36,23.60
2009,07,29,07,37,23.60
2009,07,29,07,38,23.70
2009,07,29,07,39,23.80
2009,07,29,07,40,23.80
2009,07,29,07,41,23.90
2009,07,29,07,42,24.00
2009,07,29,07,43,24.10
2009,07,29,07,44,24.20
2009,07,29,07,45,24.40
2009,07,29,07,46,24.60
2009,07,29,07,47,24.70
2009,07,29,07,48,24.80
2009,07,29,07,49,25.00
2009,07,29,07,50,25.10
2009,07,29,07,51,25.20
2009,07,29,07,52,25.40
2009,07,29,07,53,25.60
2009,07,29,07,54,25.70
2009,07,29,07,55,25.90
2009,07,29,07,56,25.90
2009,07,29,07,57,26.00
2009,07,29,07,58,26.10
2009,07,29,07,59,26.10
2009,07,29,08,00,26.20
2009,07,29,08,01,26.20
2009,07,29,08,02,26.20
2009,07,29,08,03,26.20
2009,07,29,08,04,26.20
2009,07,29,08,05,26.20
2009,07,29,08,06,26.20
2009,07,29,08,07,26.20
2009,07,29,08,08,26.30
2009,07,29,08,09,26.30
2009,07,29,08,10,26.20
2009,07,29,08,11,26.20
2009,07,29,08,12,26.20
2009,07,29,08,13,26.20
2009,07,29,08,14,26.20
2009,07,29,08,15,26.10
2009,07,29,08,16,26.20
2009,07,29,08,17,26.20
2009,07,29,08,18,26.20
2009,07,29,08,19,26.10
2009,07,29,08,20,26.10
2009,07,29,08,21,26.10
2009,07,29,08,22,26.00
2009,07,29,08,23,25.90
2009,07,29,08,24,25.90
2009,07,29,08,25,25.90
2009,07,29,08,26,25.90
2009,07,29,08,27,25.90
2009,07,29,08,28,25.90
2009,07,29,08,29,25.90
2009,07,29,08,30,25.80
2009,07,29,08,31,25.80
2009,07,29,08,32,25.80
2009,07,29,08,33,25.80
2009,07,29,08,34,25.80
2009,07,29,08,35,25.80
2009,07,29,08,36,25.80
2009,07,29,08,37,25.80
2009,07,29,08,38,25.90
2009,07,29,08,39,25.90
2009,07,29,08,40,25.90
2009,07,29,08,41,25.90
2009,07,29,08,42,25.90
2009,07,29,08,43,25.90
2009,07,29,08,44,25.90
2009,07,29,08,45,25.80
2009,07,29,08,46,25.80
2009,07,29,08,47,25.80
2009,07,29,08,48,25.80
2009,07,29,08,49,25.80
2009,07,29,08,50,25.80
2009,07,29,08,51,25.80
2009,07,29,08,52,25.80
2009,07,29,08,53,25.80
2009,07,29,08,54,25.70
2009,07,29,08,55,25.70
2009,07,29,08,56,25.70
2009,07,29,08,57,25.70
2009,07,29,08,58,25.70
2009,07,29,08,59,25.70
2009,07,29,09,00,25.70
2009,07,29,09,01,25.70
2009,07,29,09,02,25.70
2009,07,29,09,03,25.70
2009,07,29,09,04,25.70
2009,07,29,09,05,25.80
2009,07,29,09,06,25.80
2009,07,29,09,07,25.90
2009,07,29,09,08,25.90
2009,07,29,09,09,25.90
2009,07,29,09,10,25.90
2009,07,29,09,11,25.90
2009,07,29,09,12,25.90
2009,07,29,09,13,25.90
2009,07,29,09,14,26.00
2009,07,29,09,15,26.00
2009,07,29,09,16,26.10
2009,07,29,09,17,26.10
2009,07,29,09,18,26.10
2009,07,29,09,19,26.10
2009,07,29,09,20,26.10
2009,07,29,09,21,26.10
2009,07,29,09,22,26.10
2009,07,29,09,23,26.10
2009,07,29,09,24,26.10
2009,07,29,09,25,26.10
2009,07,29,09,26,26.00
2009,07,29,09,27,25.90
2009,07,29,09,28,25.90
2009,07,29,09,29,25.90
2009,07,29,09,30,25.80
2009,07,29,09,31,25.70
2009,07,29,09,32,25.70
2009,07,29,09,33,25.80
2009,07,29,09,34,25.80
2009,07,29,09,35,25.80
2009,07,29,09,36,25.80
2009,07,29,09,37,25.90
2009,07,29,09,38,25.90
2009,07,29,09,39,25.90
2009,07,29,09,40,26.00
2009,07,29,09,41,26.00
2009,07,29,09,42,26.10
2009,07,29,09,43,26.10
2009,07,29,09,44,26.10
2009,07,29,09,45,26.10
2009,07,29,09,46,26.10
2009,07,29,09,47,26.20
2009,07,29,09,48,26.20
2009,07,29,09,49,26.30
2009,07,29,09,50,26.40
2009,07,29,09,51,26.50
2009,07,29,09,52,26.60
2009,07,29,09,53,26.70
2009,07,29,09,54,26.80
2009,07,29,09,55,26.80
2009,07,29,09,56,26.80
2009,07,29,09,57,26.80
2009,07,29,09,58,26.90
2009,07,29,09,59,26.90
2009,07,29,10,00,26.80
2009,07,29,10,01,26.90
2009,07,29,10,02,26.80
2009,07,29,10,03,26.80
2009,07,29,10,04,26.80
2009,07,29,10,05,26.70
2009,07,29,10,06,26.60
2009,07,29,10,07,26.50
2009,07,29,10,08,26.50
2009,07,29,10,09,26.60
2009,07,29,10,10,26.60
2009,07,29,10,11,26.70
2009,07,29,10,12,26.70
2009,07,29,10,13,26.70
2009,07,29,10,14,26.60
2009,07,29,10,15,26.60
2009,07,29,10,16,26.60
2009,07,29,10,17,26.50
2009,07,29,10,18,26.40
2009,07,29,10,19,26.40
2009,07,29,10,20,26.30
2009,07,29,10,21,26.30
2009,07,29,10,22,26.30
2009,07,29,10,23,26.30
2009,07,29,10,24,26.30
2009,07,29,10,25,26.30
2009,07,29,10,26,26.30
2009,07,29,10,27,26.20
2009,07,29,10,28,26.30
2009,07,29,10,29,26.30
2009,07,29,10,30,26.30
2009,07,29,10,31,26.40
2009,07,29,10,32,26.40
2009,07,29,10,33,26.40
2009,07,29,10,34,26.50
2009,07,29,10,35,26.50
2009,07,29,10,36,26.60
2009,07,29,10,37,26.60
2009,07,29,10,38,26.60
2009,07,29,10,39,26.60
2009,07,29,10,40,26.70
2009,07,29,10,41,26.70
2009,07,29,10,42,26.70
2009,07,29,10,43,26.70
2009,07,29,10,44,26.80
2009,07,29,10,45,26.80
2009,07,29,10,46,26.80
2009,07,29,10,47,26.80
2009,07,29,10,48,26.80
2009,07,29,10,49,26.90
2009,07,29,10,50,26.90
2009,07,29,10,51,26.90
2009,07,29,10,52,26.90
2009,07,29,10,53,26.90
2009,07,29,10,54,26.90
2009,07,29,10,55,27.00
2009,07,29,10,56,27.10
2009,07,29,10,57,27.10
2009,07,29,10,58,27.20
2009,07,29,10,59,27.20
2009,07,29,11,00,27.30
2009,07,29,11,01,27.30
2009,07,29,11,02,27.40
2009,07,29,11,03,27.40
2009,07,29,11,04,27.50
2009,07,29,11,05,27.50
2009,07,29,11,06,27.60
2009,07,29,11,07,27.60
2009,07,29,11,08,27.60
2009,07,29,11,09,27.60
2009,07,29,11,10,27.60
2009,07,29,11,11,27.60
2009,07,29,11,12,27.60
2009,07,29,11,13,27.60
2009,07,29,11,14,27.60
2009,07,29,11,15,27.70
2009,07,29,11,16,27.70
2009,07,29,11,17,27.70
2009,07,29,11,18,27.80
2009,07,29,11,19,27.80
2009,07,29,11,20,27.80
2009,07,29,11,21,27.80
2009,07,29,11,22,27.90
2009,07,29,11,23,28.00
2009,07,29,11,24,28.10
2009,07,29,11,25,28.20
2009,07,29,11,26,28.20
2009,07,29,11,27,28.30
2009,07,29,11,28,28.20
2009,07,29,11,29,28.20
2009,07,29,11,30,28.20
2009,07,29,11,31,28.20
2009,07,29,11,32,28.20
2009,07,29,11,33,28.20
2009,07,29,11,34,28.20
2009,07,29,11,35,28.20
2009,07,29,11,36,28.30
2009,07,29,11,37,28.50
2009,07,29,11,38,28.60
2009,07,29,11,39,28.70
2009,07,29,11,40,28.80
2009,07,29,11,41,28.90
2009,07,29,11,42,29.00
2009,07,29,11,43,29.10
2009,07,29,11,44,29.20
2009,07,29,11,45,29.20
2009,07,29,11,46,29.30
2009,07,29,11,47,29.40
2009,07,29,11,48,29.50
2009,07,29,11,49,29.60
2009,07,29,11,50,29.60
2009,07,29,11,51,29.80
2009,07,29,11,52,29.80
2009,07,29,11,53,29.90
2009,07,29,11,54,30.00
2009,07,29,11,55,30.00
2009,07,29,11,56,30.10
2009,07,29,11,57,30.10
2009,07,29,11,58,30.10
2009,07,29,11,59,30.10
2009,07,29,12,00,30.20
2009,07,29,12,01,30.20
2009,07,29,12,02,30.20
2009,07,29,12,03,30.00
2009,07,29,12,04,29.80
2009,07,29,12,05,29.60
2009,07,29,12,06,29.60
2009,07,29,12,07,29.50
2009,07,29,12,08,29.40
2009,07,29,12,09,29.20
2009,07,29,12,10,29.00
2009,07,29,12,11,28.90
2009,07,29,12,12,28.90
2009,07,29,12,13,28.80
2009,07,29,12,14,28.70
2009,07,29,12,15,28.60
2009,07,29,12,16,28.50
2009,07,29,12,17,28.40
2009,07,29,12,18,28.30
2009,07,29,12,19,28.30
2009,07,29,12,20,28.30
2009,07,29,12,21,28.40
2009,07,29,12,22,28.50
2009,07,29,12,23,28.50
2009,07,29,12,24,28.40
2009,07,29,12,25,28.40
2009,07,29,12,26,28.40
2009,07,29,12,27,28.40
2009,07,29,12,28,28.40
2009,07,29,12,29,28.50
2009,07,29,12,30,28.50
2009,07,29,12,31,28.60
2009,07,29,12,32,28.60
2009,07,29,12,33,28.60
2009,07,29,12,34,28.60
2009,07,29,12,35,28.70
2009,07,29,12,36,28.70
2009,07,29,12,37,28.80
2009,07,29,12,38,28.90
2009,07,29,12,39,29.00
2009,07,29,12,40,29.00
2009,07,29,12,41,29.10
2009,07,29,12,42,29.20
2009,07,29,12,43,29.30
2009,07,29,12,44,29.40
2009,07,29,12,45,29.60
2009,07,29,12,46,29.70
2009,07,29,12,47,29.80
2009,07,29,12,48,29.80
2009,07,29,12,49,29.80
2009,07,29,12,50,29.80
2009,07,29,12,51,29.80
2009,07,29,12,52,29.80
2009,07,29,12,53,30.00
2009,07,29,12,54,30.10
2009,07,29,12,55,30.30
2009,07,29,12,56,30.30
2009,07,29,12,57,30.30
2009,07,29,12,58,30.40
2009,07,29,12,59,30.40
2009,07,29,13,00,30.40
2009,07,29,13,01,30.40
2009,07,29,13,02,30.50
2009,07,29,13,03,30.60
2009,07,29,13,04,30.60
2009,07,29,13,05,30.70
2009,07,29,13,06,30.80
2009,07,29,13,07,30.90
2009,07,29,13,08,31.00
2009,07,29,13,09,31.10
2009,07,29,13,10,31.20
2009,07,29,13,11,31.10
2009,07,29,13,12,31.10
2009,07,29,13,13,31.10
2009,07,29,13,14,31.00
2009,07,29,13,15,31.00
2009,07,29,13,16,31.00
2009,07,29,13,17,30.90
2009,07,29,13,18,30.80
2009,07,29,13,19,30.80
2009,07,29,13,20,30.90
2009,07,29,13,21,30.90
2009,07,29,13,22,30.90
2009,07,29,13,23,31.00
2009,07,29,13,24,31.10
2009,07,29,13,25,31.10
2009,07,29,13,26,31.10
2009,07,29,13,27,31.20
2009,07,29,13,28,31.20
2009,07,29,13,29,31.20
2009,07,29,13,30,31.30
2009,07,29,13,31,31.20
2009,07,29,13,32,31.20
2009,07,29,13,33,31.10
2009,07,29,13,34,31.10
2009,07,29,13,35,31.10
2009,07,29,13,36,31.10
2009,07,29,13,37,31.20
2009,07,29,13,38,31.10
2009,07,29,13,39,31.10
2009,07,29,13,40,31.20
2009,07,29,13,41,31.30
2009,07,29,13,42,31.40
2009,07,29,13,43,31.60
2009,07,29,13,44,31.70
2009,07,29,13,45,31.80
2009,07,29,13,46,31.80
2009,07,29,13,47,31.80
2009,07,29,13,48,31.80
2009,07,29,13,49,31.80
2009,07,29,13,50,31.80
2009,07,29,13,51,31.90
2009,07,29,13,52,32.00
2009,07,29,13,53,32.00
2009,07,29,13,54,31.90
2009,07,29,13,55,31.70
2009,07,29,13,56,31.60
2009,07,29,13,57,31.40
2009,07,29,13,58,31.20
2009,07,29,13,59,31.10
2009,07,29,14,00,31.00
2009,07,29,14,01,30.90
2009,07,29,14,02,30.80
2009,07,29,14,03,30.70
2009,07,29,14,04,30.60
2009,07,29,14,05,30.50
2009,07,29,14,06,30.40
2009,07,29,14,07,30.40
2009,07,29,14,08,30.30
2009,07,29,14,09,30.40
2009,07,29,14,10,30.50
2009,07,29,14,11,30.60
2009,07,29,14,12,30.60
2009,07,29,14,13,30.60
2009,07,29,14,14,30.60
2009,07,29,14,15,30.60
2009,07,29,14,16,30.60
2009,07,29,14,17,30.60
2009,07,29,14,18,30.60
2009,07,29,14,19,30.60
2009,07,29,14,20,30.50
2009,07,29,14,21,30.40
2009,07,29,14,22,30.40
2009,07,29,14,23,30.40
2009,07,29,14,24,30.40
2009,07,29,14,25,30.50
2009,07,29,14,26,30.60
2009,07,29,14,27,30.80
2009,07,29,14,28,30.90
2009,07,29,14,29,30.90
2009,07,29,14,30,30.90
2009,07,29,14,31,30.80
2009,07,29,14,32,30.80
2009,07,29,14,33,30.80
2009,07,29,14,34,30.70
2009,07,29,14,35,30.70
2009,07,29,14,36,30.80
2009,07,29,14,37,30.70
2009,07,29,14,38,30.60
2009,07,29,14,39,30.60
2009,07,29,14,40,30.50
2009,07,29,14,41,30.50
2009,07,29,14,42,30.50
2009,07,29,14,43,30.60
2009,07,29,14,44,30.60
2009,07,29,14,45,30.70
2009,07,29,14,46,30.90
2009,07,29,14,47,30.90
2009,07,29,14,48,30.90
2009,07,29,14,49,31.00
2009,07,29,14,50,31.10
2009,07,29,14,51,31.10
2009,07,29,14,52,31.10
2009,07,29,14,53,31.20
2009,07,29,14,54,31.30
2009,07,29,14,55,31.40
2009,07,29,14,56,31.50
2009,07,29,14,57,31.60
2009,07,29,14,58,31.70
2009,07,29,14,59,31.90
2009,07,29,15,00,32.10
2009,07,29,15,01,32.30
2009,07,29,15,02,32.50
2009,07,29,15,03,32.60
2009,07,29,15,04,32.70
2009,07,29,15,05,32.70
2009,07,29,15,06,32.70
2009,07,29,15,07,32.70
2009,07,29,15,08,32.60
2009,07,29,15,09,32.60
2009,07,29,15,10,32.70
2009,07,29,15,11,32.70
2009,07,29,15,12,32.80
2009,07,29,15,13,32.80
2009,07,29,15,14,32.90
2009,07,29,15,15,32.90
2009,07,29,15,16,32.90
2009,07,29,15,17,32.80
2009,07,29,15,18,32.80
2009,07,29,15,19,32.90
2009,07,29,15,20,32.90
2009,07,29,15,21,32.90
2009,07,29,15,22,32.90
2009,07,29,15,23,32.90
2009,07,29,15,24,32.90
2009,07,29,15,25,32.90
2009,07,29,15,26,32.90
2009,07,29,15,27,32.90
2009,07,29,15,28,32.90
2009,07,29,15,29,33.00
2009,07,29,15,30,33.00
2009,07,29,15,31,33.10
2009,07,29,15,32,33.10
2009,07,29,15,33,33.10
2009,07,29,15,34,33.10
2009,07,29,15,35,33.20
2009,07,29,15,36,33.20
2009,07,29,15,37,33.20
2009,07,29,15,38,33.20
2009,07,29,15,39,33.20
2009,07,29,15,40,33.20
2009,07,29,15,41,33.20
2009,07,29,15,42,33.20
2009,07,29,15,43,33.10
2009,07,29,15,44,33.00
2009,07,29,15,45,33.00
2009,07,29,15,46,32.90
2009,07,29,15,47,32.90
2009,07,29,15,48,32.90
2009,07,29,15,49,32.90
2009,07,29,15,50,32.90
2009,07,29,15,51,33.00
2009,07,29,15,52,33.00
2009,07,29,15,53,33.00
2009,07,29,15,54,33.00
2009,07,29,15,55,32.90
2009,07,29,15,56,32.90
2009,07,29,15,57,32.70
2009,07,29,15,58,32.70
2009,07,29,15,59,32.60
2009,07,29,16,00,32.60
2009,07,29,16,01,32.60
2009,07,29,16,02,32.60
2009,07,29,16,03,32.70
2009,07,29,16,04,32.70
2009,07,29,16,05,32.70
2009,07,29,16,06,32.70
2009,07,29,16,07,32.80
2009,07,29,16,08,32.80
2009,07,29,16,09,32.90
2009,07,29,16,10,32.90
2009,07,29,16,11,32.90
2009,07,29,16,12,33.00
2009,07,29,16,13,33.10
2009,07,29,16,14,33.20
2009,07,29,16,15,33.20
2009,07,29,16,16,33.20
2009,07,29,16,17,33.20
2009,07,29,16,18,33.10
2009,07,29,16,19,33.00
2009,07,29,16,20,32.90
2009,07,29,16,21,32.80
2009,07,29,16,22,32.70
2009,07,29,16,23,32.60
2009,07,29,16,24,32.60
2009,07,29,16,25,32.50
2009,07,29,16,26,32.40
2009,07,29,16,27,32.40
2009,07,29,16,28,32.30
2009,07,29,16,29,32.30
2009,07,29,16,30,32.30
2009,07,29,16,31,32.30
2009,07,29,16,32,32.40
2009,07,29,16,33,32.50
2009,07,29,16,34,32.50
2009,07,29,16,35,32.50
2009,07,29,16,36,32.40
2009,07,29,16,37,32.40
2009,07,29,16,38,32.50
2009,07,29,16,39,32.50
2009,07,29,16,40,32.60
2009,07,29,16,41,32.70
2009,07,29,16,42,32.70
2009,07,29,16,43,32.70
2009,07,29,16,44,32.70
2009,07,29,16,45,32.70
2009,07,29,16,46,32.70
2009,07,29,16,47,32.80
2009,07,29,16,48,32.70
2009,07,29,16,49,32.70
2009,07,29,16,50,32.70
2009,07,29,16,51,32.60
2009,07,29,16,52,32.50
2009,07,29,16,53,32.40
2009,07,29,16,54,32.20
2009,07,29,16,55,32.10
2009,07,29,16,56,32.10
2009,07,29,16,57,32.00
2009,07,29,16,58,32.00
2009,07,29,16,59,32.00
2009,07,29,17,00,32.00
2009,07,29,17,01,32.10
2009,07,29,17,02,32.10
2009,07,29,17,03,32.10
2009,07,29,17,04,32.10
2009,07,29,17,05,32.10
2009,07,29,17,06,32.00
2009,07,29,17,07,31.90
2009,07,29,17,08,31.90
2009,07,29,17,09,31.90
2009,07,29,17,10,31.90
2009,07,29,17,11,31.90
2009,07,29,17,12,32.00
2009,07,29,17,13,32.00
2009,07,29,17,14,32.10
2009,07,29,17,15,32.10
2009,07,29,17,16,32.10
2009,07,29,17,17,32.10
2009,07,29,17,18,32.10
2009,07,29,17,19,32.10